Strona główna
METAR-TAF:

METAR-TAF

Lotnisko :

Kraków, Polska

Port lotniczy Kraków-Balice

Szerokość geograficzna: 50-05N, Długość geograficzna: 019-48E, wysokość: 237 m

Aktualna obserwacja pogody

Raport powstał 35 minut temu, godzina 04:30 UTC
Wiatr 2 kt z kierunków zmiennych
Temperatura 19°C
Wilgotność 78%
Ciśnienie 1011 hPa
Widzialność 10 km lub więcej
Brak chmur poniżej 1500 m i brak chmur cumulonimbus

METAR: EPKK 260430Z VRB02KT CAVOK 19/15 Q1011

czas: 07:05 (05:05 UTC)


TAF: brakujący

Obserwacja i prognoza pogody dla ponad 4000 lotnisk (raport METAR i TAF).

Dostępne stacje oznaczono żółtymi i czerwonymi punktami na mapie.

Najedź kursorem aby zobaczyć nazwę stacji.

Kliknij aby zobaczyć obserwacje i prognozy pogody.

Aby zmienić mapę: kliknij na zielony przycisk z czarnym krzyżykiem, aby powiększyć; na zielony przycisk z myślnikiem, aby pomniejszyć; na zielone strzałki, aby przejść do map sąsiednich.


METAR-TAF: